Regional Weather Roundup
Issued by NWS

Home | Current Version | Previous Version | Text Only | Print | Product List | Glossary On
Versions: 1 2 3 4 5 6 7 8 9 10 11 12 13 14 15 16 17 18 19 20 21 22 23 24 25 26 27 28 29 30 31 32 33 34 35 36 37 38 39 40 41 42 43 44 45 46 47 48 49 50
000
ASUS43 KMPX 292110
RWRMN
WEATHER ROUNDUP FOR MINNESOTA
NATIONAL WEATHER SERVICE TWIN CITIES/CHANHASSEN MN
400 PM CDT MON SEP 29 2014


NOTE: "FAIR" INDICATES FEW OR NO CLOUDS BELOW 12,000 FEET WITH NO
SIGNIFICANT WEATHER AND/OR OBSTRUCTIONS TO VISIBILITY. N/A MEANS
CURRENT SKY AND/OR WEATHER CONDITIONS ARE NOT AVAILABLE.

MNZ060>063-068>070-292200-
   Twin Cities Metro

CITY           SKY/WX    TMP DP  RH WIND       PRES   REMARKS
TWIN CITIES    CLOUDY    57  46  66 NE12      30.11F
ST PAUL        CLOUDY    58  47  66 NE14      30.12S
CRYSTAL        PTSUNNY   59  45  59 NE8       30.11F
BLAINE         PTSUNNY   57  46  67 NE13      30.12F
LAKEVILLE      CLOUDY    55  46  71 N9        30.10F
EDEN PRAIRIE   CLOUDY    57  47  69 NE9       30.10F
SOUTH ST PAUL  CLOUDY    58  46  63 NE12      30.11S
LAKE ELMO      CLOUDY    55  46  71 N7        30.12S
$$
MNZ001>005-007-008-013>017-022>024-027-028-292200-
   Northwest Minnesota

CITY           SKY/WX    TMP DP  RH WIND       PRES   REMARKS
BEMIDJI        MOSUNNY   56  44  64 E9        30.17S
HALLOCK        CLOUDY    54  46  76 SE7       30.18F
ROSEAU         SUNNY     55  46  71 NE9       30.18F
WARROAD        SUNNY     52  46  82 NE7       30.20F
THIEF RVR FALL SUNNY     57  45  62 E8        30.16F
CROOKSTON      SUNNY     61  46  59 E6        30.15F
FOSSTON        SUNNY     63  55  77 E6        30.16F
DETROIT LAKES  SUNNY     59  45  58 E8        30.14F
PARK RAPIDS    SUNNY     56  44  64 E12G20    30.15F
MAHNOMEN       FAIR      61  45  55 E10       30.13F
$$
MNZ006-009>011-018-025>026-292200-
   North Central Minnesota

CITY           SKY/WX    TMP DP  RH WIND       PRES   REMARKS
BAUDETTE       MOSUNNY   55  43  63 SE6       30.19F
FLAG ISLAND    MOSUNNY   52  43  71 CALM      30.19F
INTL FALLS     CLOUDY    47  40  76 E8        30.22F
WASKISH        MOSUNNY   55  45  67 NE7       30.19F
BIG FORK       MOSUNNY   54  43  66 NE7       30.19F
LONGVILLE      CLOUDY    55  45  67 CALM      30.16F
GRAND RAPIDS   CLOUDY    52  39  62 E7        30.18F
CRANE LAKE     CLOUDY    45  39  81 CALM      30.24
ORR            CLOUDY    46  37  71 NE3       30.19F
COOK           CLOUDY    48  41  76 NE3       30.21F
WALKER         CLOUDY    53  45  73 E5        30.16F
$$
MNZ012-019>021-037-292200-
   Northeast Minnesota

CITY           SKY/WX    TMP DP  RH WIND       PRES   REMARKS
DULUTH         CLOUDY    45  39  79 E14       30.20F
ELY            CLOUDY    45  37  76 N3        30.21F
HIBBING        CLOUDY    52  41  66 E3        30.19F
EVELETH        PTSUNNY   50  41  71 N8        30.20F
DULUTH HARBOR  CLOUDY    48  43  81 E18       30.23S
TWO HARBORS    CLOUDY    45  37  76 E8        30.20F
SILVER BAY     MOSUNNY   45  43  93 E6        30.20F
GRAND MARAIS     N/A     48  40  73 VRB3      30.22F
G MARAIS ARPRT CLOUDY    43  36  75 NW6       30.21S
$$
MNZ029>031-032-039>041-046>048-054>057-064-292200-
   West Central Minnesota

CITY           SKY/WX    TMP DP  RH WIND       PRES   REMARKS
FERGUS FALLS   SUNNY     59  45  58 E8        30.12F
WHEATON        MOSUNNY   61  48  63 SE8       30.13S
MORRIS         SUNNY     57  48  72 E10       30.12S
ALEXANDRIA     CLOUDY    54  47  77 E16       30.14F
ELBOW LAKE     FAIR      57  47  71 E12       30.12F
WADENA         MOSUNNY   54  45  71 NE10      30.15S
GLENWOOD       PTSUNNY   55  48  76 NE14      30.13F
APPLETON       CLOUDY    61  48  63 E8        30.10F
BENSON         CLOUDY    57  50  77 E7        30.12S
ORTONVILLE     CLOUDY    59  48  67 E10       30.10F
MADISON        PTSUNNY   61  54  77 NE9       30.10F
WILLMAR        FAIR      61  46  59 NE9       30.12F
$$
MNZ033>034-036-042>043-049>051-058-059-292200-
   Central Minnesota

CITY           SKY/WX    TMP DP  RH WIND       PRES   REMARKS
ST CLOUD       CLOUDY    57  45  64 NE8       30.14F
SAUK CENTRE    CLOUDY    54  47  76 NE12      30.14F
PAYNESVILLE    CLOUDY    54  47  77 N10       30.13F
AITKIN         CLOUDY    55  46  71 NE3       30.16F
PINE RIVER     MOSUNNY   54  45  71 E9        30.19F
BRAINERD       CLOUDY    51  43  74 NE14      30.18F
STAPLES        PTSUNNY   55  43  62 E9        30.16S
LONG PRAIRIE   CLOUDY    52  45  76 N7        30.16S
LITTLE FALLS   PTSUNNY   54  45  71 NE6       30.15F
LITCHFIELD     CLOUDY    57  50  77 E10       30.12F
BUFFALO        PTSUNNY   57  45  63 NE9G16    30.13F
MAPLE LAKE     CLOUDY    57  48  72 N7        30.14S
$$
MNZ037-044-045-052-053-292200-
   East Central Minnesota

CITY           SKY/WX    TMP DP  RH WIND       PRES   REMARKS
PRINCETON      CLOUDY    57  46  67 VRB12     30.14F
MORA           PTSUNNY   52  43  71 NE10      30.17S
CAMBRIDGE      MOSUNNY   59  45  58 N10       30.13S
RUSH CITY      CLOUDY    55  45  68 N9        30.15S
MOOSE LAKE     CLOUDY    46  41  81 E8        30.18S
HINCKLEY       CLOUDY    52  43  71 NE10G18   30.17S
CLOQUET        CLOUDY    46  39  76 E7        30.20S
MCGREGOR       CLOUDY    52  43  71 E7        30.18F
$$
MNZ071>073-080-081-089-090-097-098-292200-
   Southwest Minnesota

CITY           SKY/WX    TMP DP  RH WIND       PRES   REMARKS
MONTEVIDEO     CLOUDY    61  52  72 E6        30.11F
GRANITE FALLS  CLOUDY    60  50  70 NE5       30.11S
CANBY          PTSUNNY   63  53  70 NE8       30.09F
MARSHALL       CLOUDY    63  48  59 E10G16    30.07F
REDWOOD FALLS  MOSUNNY   60  49  66 E7        30.09F
OLIVIA         MOSUNNY   61  48  63 NE8       30.09F
PIPESTONE      SUNNY     64  54  68 E8        30.06S
WINDOM         SUNNY     64  54  68 NE8       30.06F
WORTHINGTON    CLOUDY    63  55  77 NE12      30.07S
JACKSON        CLOUDY    64  54  68 N8        30.07F
TRACY          MOSUNNY   67  53  60 NE9       30.08F
SLAYTON        MOSUNNY   64  53  69 CALM      30.07F
$$
MNZ065>067-074>077-082>085-091>093-292200-
   South Central Minnesota

CITY           SKY/WX    TMP DP  RH WIND       PRES   REMARKS
MANKATO        MOSUNNY   61  46  59 NE12      30.08F
NEW ULM        MOSUNNY   61  50  67 NE7       30.09S
ST JAMES       MOSUNNY   66  54  63 N12       30.07F
FAIRMONT       CLOUDY    64  52  63 NE7       30.06F
GLENCOE        CLOUDY    58  47  66 NE6       30.11S
FARIBAULT      MOSUNNY   63  46  55 N10       30.09F
OWATONNA       MOSUNNY   59  50  72 CALM      30.08F
WASECA         MOSUNNY   59  45  58 NE10      30.09F
ALBERT LEA     SUNNY     66  54  63 N7        30.05F
$$
MNZ078>079-086>088-094>096-292200-
   Southeast Minnesota

CITY           SKY/WX    TMP DP  RH WIND       PRES   REMARKS
ROCHESTER      MOSUNNY   59  50  72 NE12      30.09R
RED WING       CLOUDY    61  46  59 NE6       30.08S
STANTON        CLOUDY    59  48  67 N8        30.08F
DODGE CENTER   MOSUNNY   59  52  77 NE13      30.08S
WINONA         CLOUDY    55  50  82 N5        30.08S
AUSTIN         PTSUNNY   63  54  72 NE8       30.06S
PRESTON        MOSUNNY   59  51  74 N10G16    30.06S
$$
ABBREVIATIONS USED IN REMARKS
   TC - TEMPERATURES IN CELSIUS
  WCI - WIND CHILL INDEX
   HX - HEAT INDEX
  VSB - VISIBILITY
$$



USA.gov is the U.S. government's official web portal to all federal, state and local government web resources and services.